Theta_e
287 288 290 291 294 295 297 297 298 299 301 304 305 305 307 308 310 313 314 321 322 321 320 322 322 321 321 321 321 321 320 320 317 295 296 296 298 300 302 304 304 305 305
285 287 289 290 292 294 295 296 297 298 300 302 304 304 305 305 307 312 312 321 320 320 321 321 321 321 321 318 318 317 317 317 312 294 292 293 295 297 299 301 300 300 299
285 287 287 288 290 291 293 295 297 298 299 299 301 301 302 303 303 307 310 307 313 314 314 312 309 309 309 310 311 312 309 309 309 300 291 292 291 294 294 295 296 296 296
285 286 286 287 288 290 291 293 295 297 296 296 297 298 298 301 297 300 303 298 303 303 304 305 305 305 303 303 305 304 304 304 301 297 291 290 290 291 292 291 292 292 292
284 285 286 287 288 289 290 290 292 293 294 293 294 294 295 296 293 298 297 293 296 296 296 298 298 299 300 299 300 299 300 296 294 291 290 290 289 290 291 290 288 289 288
283 284 285 286 287 287 288 288 289 289 289 289 290 290 291 290 290 293 294 290 293 294 293 293 294 294 294 296 295 295 297 295 292 291 291 291 290 290 290 289 287 287 286
282 284 285 285 286 286 286 287 287 287 287 287 287 287 286 287 287 290 289 287 288 288 292 291 292 292 293 294 294 294 293 293 294 293 291 290 290 291 291 289 289 288 286
282 283 284 285 285 285 285 285 285 285 286 286 286 286 286 285 285 285 284 285 285 286 287 288 289 290 292 293 292 290 289 290 291 291 291 289 290 290 290 290 289 286 284
282 283 284 285 285 285 285 285 285 285 285 285 285 286 286 285 285 284 284 284 284 284 284 284 285 287 288 290 291 286 284 283 284 285 285 287 289 289 289 290 287 284 281
281 283 285 285 285 285 285 285 285 285 285 285 285 286 286 286 285 285 284 284 283 283 283 284 284 283 284 284 284 282 281 280 281 281 281 282 283 283 284 285 284 285 282
283 284 285 285 285 285 284 284 284 284 284 284 284 285 285 286 285 285 284 284 283 283 282 282 283 284 283 283 283 282 281 281 281 281 281 281 281 281 281 281 283 284 284
283 284 284 285 284 284 284 284 283 283 283 283 282 282 283 284 285 285 285 284 283 282 281 281 282 282 281 281 281 281 280 281 281 281 280 278 279 279 278 279 280 280 280
282 283 282 283 283 283 283 283 282 282 282 281 280 280 280 282 283 283 284 283 282 281 280 279 279 278 278 278 278 279 280 280 280 279 276 275 275 275 276 277 276 277 277
281 282 281 281 281 281 280 280 280 280 279 279 279 277 278 279 280 281 282 282 281 280 279 278 277 276 276 276 277 277 277 277 277 275 274 273 273 274 274 275 275 274 275
280 281 281 280 280 279 279 279 279 279 278 277 277 277 277 278 279 279 280 280 280 280 278 277 276 276 275 274 274 274 274 274 274 273 273 272 272 272 272 272 273 273 274
280 281 280 280 279 278 278 278 279 279 279 278 278 277 277 278 278 278 278 279 279 280 279 277 274 273 272 272 271 271 270 270 270 270 270 270 270 270 270 270 270 271 271
278 278 278 279 280 279 279 278 277 277 276 277 277 277 277 277 277 276 276 276 277 278 277 274 273 272 271 270 270 270 269 268 269 269 269 269 269 269 269 269 269 269 269
277 277 278 278 278 279 279 278 277 276 275 274 274 274 275 275 275 275 274 275 276 275 274 272 271 270 269 269 269 268 268 268 268 268 267 267 267 268 268 267 267 267 267
277 277 277 277 277 278 278 277 276 275 274 272 272 272 272 271 271 271 273 274 273 271 270 270 269 269 269 269 268 267 267 266 266 266 266 266 266 266 266 266 266 266 266
276 276 276 276 276 276 276 276 275 275 274 273 273 272 273 273 273 273 272 272 272 271 270 270 269 268 267 267 266 266 266 266 266 265 265 265 265 265 265 265 265 264 265
276 276 276 276 276 276 276 275 274 273 272 271 271 270 270 270 270 269 268 268 267 267 267 266 266 266 265 265 265 265 265 265 265 265 265 264 264 264 264 264 264 264 264
277 277 276 276 275 275 274 274 273 273 272 271 270 271 269 269 269 268 267 266 266 266 266 265 265 265 265 265 265 265 265 265 264 264 264 264 264 264 263 263 263 263 263
275 275 274 274 274 273 273 273 272 272 271 270 270 269 269 269 268 268 267 266 265 265 265 265 265 265 265 265 264 264 264 264 264 264 264 264 263 263 263 263 263 262 262
274 274 274 274 273 273 272 272 271 271 270 270 269 269 268 268 267 266 265 265 265 265 265 265 265 265 264 264 264 264 264 265 264 264 263 263 263 263 262 262 262 262 261
273 273 273 273 272 272 271 270 270 270 269 269 269 268 268 267 266 265 264 265 265 265 264 264 264 264 264 264 265 265 265 264 264 263 263 263 262 262 262 262 261 261 261
273 273 272 272 271 271 271 270 269 269 269 268 268 267 267 266 265 264 264 264 264 264 264 264 264 264 265 265 265 264 264 264 263 263 263 262 262 262 262 262 262 261 261
Wind_Speed
24 24 21 16 12 11 10 11 8 8 9 8 10 10 12 14 15 20 25 31 29 26 28 28 28 24 23 26 27 25 25 21 4 3 5 6 5 7 10 13 17 19 18
23 22 19 16 13 10 8 9 8 8 6 6 7 8 9 11 11 13 15 31 31 29 31 26 23 24 26 24 23 20 20 15 6 6 8 6 9 12 17 22 24 24 22
22 19 16 15 11 9 8 7 6 6 3 4 6 6 6 6 8 10 13 19 30 27 23 22 19 18 17 16 16 13 11 11 9 12 8 10 14 19 21 23 23 22 20
19 17 15 14 11 8 5 3 2 2 2 2 3 2 3 3 7 14 16 22 30 28 26 24 20 17 14 15 16 13 12 12 12 18 14 15 17 20 21 21 19 16 15
20 16 13 11 8 6 4 4 4 5 5 3 3 3 4 2 5 16 20 19 35 36 33 31 27 21 19 14 16 16 15 17 19 19 13 14 13 16 17 12 17 14 12
23 19 14 12 11 11 11 13 12 12 13 12 14 15 16 13 9 21 23 12 36 40 39 35 32 28 25 24 22 18 15 19 20 13 13 14 12 14 13 18 18 8 3
24 23 19 18 19 19 19 20 22 24 24 24 27 27 28 25 20 28 20 27 33 36 42 35 32 27 27 28 28 25 23 19 14 18 22 17 18 17 19 17 13 7 5
25 25 24 20 21 23 25 25 26 28 27 26 29 32 33 29 31 32 25 28 37 37 36 34 31 29 28 29 30 32 30 26 22 20 19 14 12 13 13 15 13 11 12
24 25 26 23 22 23 25 25 26 30 30 29 31 36 29 30 27 22 20 21 37 38 35 33 31 29 25 25 29 33 30 28 22 22 20 17 14 12 9 12 13 13 4
24 24 26 26 26 25 25 25 26 29 29 30 36 34 31 29 22 19 17 22 28 32 31 34 30 25 23 23 26 26 27 19 19 19 19 17 12 12 11 11 11 8 7
20 21 24 25 24 24 26 26 25 27 30 31 30 33 34 29 24 22 20 25 26 27 27 27 27 25 24 23 21 20 21 17 17 18 17 16 14 12 10 7 6 6 5
15 18 20 21 22 23 22 23 23 23 22 22 24 26 26 26 25 22 22 24 22 29 25 22 23 24 22 21 21 18 17 15 13 14 13 13 12 11 10 7 7 5 5
13 15 18 19 20 19 21 20 18 17 18 18 19 19 22 23 23 23 21 22 23 27 24 22 21 20 19 21 18 15 13 11 10 11 11 10 9 9 5 7 5 5 6
13 15 16 20 21 22 23 22 20 19 18 16 15 17 18 19 19 18 18 17 14 18 20 21 18 17 16 16 14 14 13 10 10 11 10 8 6 5 5 4 3 5 5
14 15 17 18 19 20 23 22 21 21 18 19 18 17 17 16 13 11 9 12 12 13 14 12 12 13 15 15 14 12 10 9 9 8 8 8 7 7 8 5 4 4 4
15 15 13 14 16 18 19 19 19 18 17 18 16 15 15 13 12 13 13 8 10 8 11 11 11 11 12 11 12 12 11 11 9 8 9 9 10 8 7 6 5 5 5
13 12 11 10 10 10 9 10 14 12 16 15 16 16 16 13 12 11 10 13 8 8 11 10 11 10 11 10 11 10 11 9 8 9 8 8 8 7 6 5 5 5 5
8 9 9 9 9 8 7 8 7 6 9 11 13 13 14 13 12 7 9 8 12 11 10 10 11 10 10 9 9 8 8 7 7 8 8 8 7 6 4 5 6 6 5
8 8 8 8 7 6 6 5 5 7 9 8 6 5 8 10 12 13 11 11 13 13 11 10 8 7 6 5 5 5 5 5 5 5 5 5 5 3 3 3 4 4 4
10 9 8 8 8 7 5 5 5 5 5 5 6 5 4 6 7 8 8 7 7 7 7 5 5 4 3 3 3 2 2 1 2 1 1 1 2 2 3 4 5 6 6
9 8 8 7 6 6 6 5 5 6 5 4 5 5 3 5 7 7 7 7 7 7 7 6 5 5 4 3 2 2 2 2 1 1 2 2 4 5 5 7 8 9 10
9 8 8 8 7 7 7 7 8 8 9 9 10 10 6 6 5 5 5 4 4 4 4 4 3 3 3 2 2 3 3 3 4 5 6 6 7 8 9 10 11 12 12
13 13 12 11 9 10 10 10 11 11 11 11 10 9 7 6 6 5 5 5 5 5 5 5 5 5 5 5 6 6 7 6 7 9 10 11 12 13 13 15 15 16 17
17 16 14 13 13 13 13 13 12 12 12 12 12 11 10 9 7 7 7 6 6 6 6 6 6 6 7 7 8 9 10 11 12 14 15 16 17 18 18 19 20 20 21
19 17 16 16 15 15 14 13 13 13 14 13 12 12 10 10 9 8 8 8 8 7 7 8 8 9 10 11 12 13 15 16 17 17 18 20 22 23 24 24 25 23 22
20 18 17 16 15 16 16 15 15 14 14 13 12 12 11 10 9 9 8 9 9 9 9 10 11 12 14 16 16 17 18 20 21 21 22 23 24 25 24 25 25 25 24
Wind_Direction
324 321 321 328 332 338 323 295 302 292 273 280 274 282 269 252 260 261 275 212 198 195 198 193 197 208 217 223 228 228 222 220 187 115 161 149 129 144 146 146 141 133 136
324 326 327 325 328 327 303 294 290 279 279 276 269 279 276 255 254 249 245 188 188 184 192 198 202 209 207 206 204 208 202 199 168 127 145 140 130 135 134 133 127 127 121
332 331 331 330 326 314 303 290 271 267 280 279 263 273 272 251 241 215 208 172 171 167 165 163 160 167 163 169 171 172 169 174 171 159 140 147 135 139 132 128 124 124 123
343 344 341 340 335 321 319 309 228 202 228 240 233 238 248 258 210 181 160 149 131 130 129 133 129 142 147 152 143 152 154 143 144 144 117 127 137 143 138 126 116 121 116
355 6 8 5 10 16 44 72 89 120 121 131 136 107 88 175 196 151 141 130 124 120 112 109 109 110 114 121 128 129 137 137 130 122 124 130 133 144 145 144 129 126 117
8 13 29 45 59 68 78 86 90 95 94 96 91 89 89 89 98 127 122 147 110 110 105 103 106 110 114 104 104 107 115 129 126 117 126 133 134 144 145 150 141 136 103
17 20 33 54 64 70 79 83 83 81 82 75 78 78 69 70 76 95 104 90 100 102 109 110 106 104 106 105 99 99 99 102 120 142 130 136 144 158 158 158 160 149 128
23 24 34 48 59 67 72 71 73 76 74 71 71 72 67 64 70 73 76 88 91 94 98 102 108 106 104 108 106 98 91 90 101 112 113 114 132 144 160 168 165 136 132
17 26 36 48 58 65 68 70 72 75 73 72 71 72 70 70 78 81 81 85 82 81 89 97 95 96 102 108 108 103 97 92 92 104 106 117 129 140 145 163 151 144 119
21 33 47 50 56 59 65 70 78 79 77 75 73 73 73 67 74 82 84 82 80 78 71 74 76 86 95 99 102 106 103 105 106 102 99 105 116 125 141 164 170 174 129
45 60 67 64 63 69 73 73 72 75 76 73 75 72 73 70 65 71 82 84 85 81 75 72 77 80 81 87 95 98 104 114 106 104 99 101 100 95 93 97 124 156 159
60 69 72 75 78 79 81 78 77 77 74 71 70 69 69 69 70 72 76 82 89 92 86 83 81 79 78 79 85 89 99 105 109 103 105 94 97 98 92 86 88 102 115
66 66 71 79 81 81 80 73 69 68 72 71 70 65 61 67 67 70 75 78 78 83 84 79 74 72 75 77 78 96 100 101 105 96 92 96 91 81 94 101 91 97 103
78 74 75 75 73 76 75 72 71 68 64 64 66 63 64 65 64 71 86 88 85 83 87 80 77 82 84 85 87 87 88 94 105 113 118 115 112 97 105 110 98 134 134
104 99 89 77 76 74 72 72 72 70 76 82 82 74 67 63 60 68 78 84 118 105 109 101 87 80 78 80 82 86 94 97 99 121 128 121 104 79 72 86 112 116 147
122 111 105 106 107 101 94 82 68 72 71 72 71 69 77 76 72 60 54 94 100 138 122 119 111 105 101 99 94 93 95 99 107 111 102 95 91 95 78 70 84 103 99
122 123 117 112 109 109 104 96 104 83 71 66 63 61 62 62 66 60 68 77 102 143 131 116 105 98 97 101 100 114 120 108 102 93 95 96 94 91 89 76 76 77 74
131 132 135 129 133 130 122 104 122 130 104 97 80 72 65 64 64 65 70 97 110 122 122 123 123 127 127 127 124 109 92 81 67 61 60 58 57 58 57 40 33 32 14
160 155 156 155 147 139 141 122 94 98 95 101 90 67 76 65 67 73 86 95 106 111 114 117 116 114 111 96 79 68 64 62 55 48 49 50 45 40 14 355 350 344 333
173 166 164 155 150 144 130 113 98 88 76 50 33 23 20 26 45 53 65 75 93 110 117 121 125 128 122 112 114 123 137 131 124 100 60 14 342 333 329 321 313 308 300
174 169 170 170 172 170 167 158 152 152 144 125 107 111 156 163 150 144 143 145 145 146 150 154 158 163 166 172 178 178 186 204 239 259 265 277 283 288 291 292 292 288 290
199 198 197 191 188 188 185 185 185 183 182 174 158 142 159 168 174 171 167 164 166 173 182 190 196 198 200 208 231 255 267 267 267 272 269 268 270 275 283 285 286 285 287
204 200 196 197 198 193 191 193 192 193 195 195 193 204 217 208 209 210 204 202 205 212 216 215 214 217 230 239 247 255 264 270 268 264 269 271 270 272 275 277 280 280 279
206 204 202 202 201 203 202 199 199 200 204 207 213 222 224 224 227 229 226 226 232 232 228 229 238 244 252 260 266 270 276 280 276 276 277 276 277 277 276 277 278 278 280
205 202 201 203 201 199 198 201 205 208 211 217 220 222 224 228 231 233 236 239 238 241 247 256 263 269 274 276 277 280 283 283 283 282 280 279 278 279 278 279 281 283 282
201 203 205 203 203 206 207 207 208 208 212 216 219 224 230 234 237 240 245 246 248 252 259 267 273 279 284 286 288 287 286 284 282 279 276 274 275 275 276 277 279 277 277